Back to catalog

STARLINK-32428

AliveCommunicationsVLEO
NORAD 61666·PAYLOAD·🇺🇸 United States

Launched Oct 26, 2024 from Cape Canaveral Space Force Station

Loading…

Next Passes (next 24 hours)

TLE

FreshSource: CelesTrak SupGP

Epoch: Sep 15, 2026, 03:26 UTC

1 61666C 24193F   26258.14354167  .00002242  00000+0  72066-4 0  2580
2 61666  53.1577 289.8897 0001127  91.5417  91.8932 15.31714327    11

Track STARLINK-32428 in real time with AllMySat

Download on the App Store